DW9160 Weather Reports


Display with metric or nautical units.
time (UTC)temp
F
wind
direction
speed
MPH
gust
MPH
rain 1hr
in
rain 24hr
in
rain mn
in
humidity
%
barometer
mb
20260505204524 70 0 6.0 10.0 0.00 0.00 0.00 44 1013.8
20260505203522 70 0 7.0 11.0 0.00 0.00 0.00 42 1013.9
20260505202523 71 0 9.0 15.0 0.00 0.00 0.00 39 1014.0
20260505201523 72 0 9.0 15.0 0.00 0.00 0.00 38 1014.0
20260505200519 71 0 9.0 16.0 0.00 0.00 0.00 40 1014.2
20260505195523 70 0 8.0 11.0 0.00 0.00 0.00 38 1013.9
20260505194518 71 0 5.0 9.0 0.00 0.00 0.00 38 1014.3
20260505193543 71 0 2.0 7.0 0.00 0.00 0.00 38 1014.3
20260505192526 70 0 5.0 10.0 0.00 0.00 0.00 42 1014.1
20260505191524 69 0 5.0 13.0 0.00 0.00 0.00 44 1014.2
20260505190525 68 0 8.0 11.0 0.00 0.00 0.00 46 1013.8
20260505185524 68 0 7.0 13.0 0.00 0.00 0.00 49 1013.8
20260505184524 67 0 7.0 14.0 0.00 0.00 0.00 49 1013.9
20260505183518 66 0 9.0 14.0 0.00 0.00 0.00 54 1013.7
20260505182523 65 0 8.0 13.0 0.00 0.00 0.00 55 1013.8
20260505181523 64 0 8.0 11.0 0.00 0.00 0.00 52 1013.5
20260505180524 64 0 8.0 11.0 0.00 0.00 0.00 53 1013.5
20260505175522 64 0 5.0 9.0 0.00 0.00 0.00 53 1013.5
20260505174521 62 0 5.0 8.0 0.00 0.00 0.00 50 1013.1
20260505173517 62 0 6.0 10.0 0.00 0.00 0.00 50 1013.1
20260505172519 61 0 6.0 9.0 0.00 0.00 0.00 50 1013.1
20260505171523 60 0 7.0 10.0 0.00 0.00 0.00 52 1012.8
20260505170525 59 0 6.0 10.0 0.00 0.00 0.00 54 1012.8
20260505165525 59 0 7.0 10.0 0.00 0.00 0.00 57 1012.9
20260505164527 58 0 7.0 11.0 0.00 0.00 0.00 60 1012.6
20260505163524 57 0 8.0 11.0 0.00 0.00 0.00 62 1012.6
20260505162518 56 0 8.0 11.0 0.00 0.00 0.00 64 1012.3
20260505161523 56 0 8.0 11.0 0.00 0.00 0.00 66 1012.3
20260505160521 55 0 9.0 13.0 0.00 0.00 0.00 68 1012.3
20260505152524 52 338 1.0 5.0 0.00 0.00 0.00 75 1011.6
20260505151517 51 0 4.0 7.0 0.00 0.00 0.00 77 1011.6
20260505150542 51 0 1.0 6.0 0.00 0.00 0.00 82 1011.4
20260505140518 44 0 2.0 4.0 0.00 0.00 0.00 93 1010.2
20260505124524 43 0 1.0 4.0 0.00 0.00 0.00 90 1009.5
20260505123525 43 0 3.0 5.0 0.00 0.00 0.00 90 1009.3
20260505122526 44 338 1.0 4.0 0.00 0.00 0.00 89 1009.4
20260505121525 44 0.0 0.0 0.00 0.00 0.00 89 1009.3
20260505120544 44 0.0 0.0 0.00 0.00 0.00 88 1009.2
20260505115520 45 0.0 0.0 0.00 0.00 0.00 88 1009.5
20260505114518 45 0.0 0.0 0.00 0.00 0.00 89 1009.3
20260505113523 45 0.0 0.0 0.00 0.00 0.00 89 1009.3
20260505112525 45 0.0 0.0 0.00 0.00 0.00 88 1009.2
20260505111522 46 0.0 0.0 0.00 0.00 0.00 88 1009.2
20260505110523 46 0.0 0.0 0.00 0.00 0.00 88 1009.1
20260505101543 47 0 5.0 7.0 0.00 0.00 0.00 87 1009.2
20260505100524 47 0 4.0 6.0 0.00 0.00 0.00 87 1009.3
20260505095523 48 338 5.0 7.0 0.00 0.00 0.00 87 1009.4
20260505094523 48 338 4.0 7.0 0.00 0.00 0.00 87 1009.3
20260505093600 48 338 5.0 10.0 0.00 0.00 0.00 87 1009.4
20260505092517 48 338 5.0 7.0 0.00 0.00 0.00 87 1009.3
20260505091523 48 338 4.0 7.0 0.00 0.00 0.00 87 1009.3
20260505090524 48 0 3.0 5.0 0.00 0.00 0.00 86 1009.3
20260505085521 47 0 2.0 4.0 0.00 0.00 0.00 85 1009.2
20260505084522 48 0.0 0.0 0.00 0.00 0.00 85 1009.2
20260505083543 48 0.0 0.0 0.00 0.00 0.00 84 1009.3
20260505082518 49 0.0 0.0 0.00 0.00 0.00 84 1009.6
20260505081538 49 0.0 3.0 0.00 0.00 0.00 84 1009.5
20260505080522 49 0.0 0.0 0.00 0.00 0.00 83 1009.5
20260505075523 50 0 2.0 4.0 0.00 0.00 0.00 83 1009.5
20260505074522 49 0 5.0 8.0 0.00 0.00 0.00 83 1009.3
20260505073523 50 0 6.0 8.0 0.00 0.00 0.00 82 1009.2
20260505072523 51 0 4.0 6.0 0.00 0.00 0.00 79 1009.6
20260505071540 52 0 4.0 8.0 0.00 0.00 0.00 79 1009.5
20260505070527 52 0 4.0 9.0 0.00 0.00 0.00 79 1009.4
20260505065522 52 0 4.0 8.0 0.00 0.00 0.00 78 1009.2
20260505064522 53 0 6.0 11.0 0.00 0.00 0.00 78 1009.4
20260505063524 53 0 6.0 11.0 0.00 0.00 0.00 78 1009.3
20260505062524 53 0 5.0 8.0 0.00 0.00 0.00 77 1009.1
20260505061522 53 0 6.0 10.0 0.00 0.00 0.00 76 1009.0
20260505060518 54 0 5.0 10.0 0.00 0.00 0.00 75 1008.9
20260505055520 54 0 7.0 12.0 0.00 0.00 0.00 75 1008.8
20260505054521 54 0 7.0 11.0 0.00 0.00 0.00 76 1008.8
20260505053527 53 0 5.0 8.0 0.00 0.00 0.00 76 1008.8
20260505052605 53 0 4.0 7.0 0.00 0.00 0.00 75 1008.9
20260505051525 54 0 3.0 6.0 0.00 0.00 0.00 73 1008.8
20260505050521 55 0 3.0 6.0 0.00 0.00 0.00 72 1009.0
20260505041522 57 0 8.0 11.0 0.00 0.00 0.00 69 1008.5
20260505040521 57 0 7.0 14.0 0.00 0.00 0.00 69 1008.2
20260505035525 58 0 7.0 12.0 0.00 0.00 0.00 68 1008.1
20260505034519 58 0 8.0 13.0 0.00 0.00 0.00 67 1008.0
20260505033524 59 0 11.0 18.0 0.00 0.00 0.00 66 1008.1
20260505032522 59 0 10.0 15.0 0.00 0.00 0.00 65 1008.0
20260505031524 60 0 13.0 18.0 0.00 0.00 0.00 64 1007.7
20260505030522 60 0 13.0 19.0 0.00 0.00 0.00 64 1007.5
20260505025623 61 0 13.0 20.0 0.00 0.00 0.00 64 1007.8
20260505024523 61 0 11.0 18.0 0.00 0.00 0.00 64 1007.7
20260505023540 61 0 13.0 22.0 0.00 0.00 0.00 66 1007.6
20260505022526 61 0 13.0 22.0 0.00 0.00 0.00 66 1007.6
20260505021525 61 0 13.0 20.0 0.00 0.00 0.00 66 1007.5
20260505020524 61 0 12.0 20.0 0.00 0.00 0.00 65 1007.4
20260505015522 62 0 9.0 15.0 0.00 0.00 0.00 65 1007.4
20260505014542 62 0 15.0 24.0 0.00 0.00 0.00 65 1007.5
20260505013522 63 0 15.0 26.0 0.00 0.00 0.00 63 1007.9
20260505012517 64 0 12.0 21.0 0.00 0.00 0.00 62 1008.0
20260505011524 65 0 13.0 22.0 0.00 0.00 0.00 64 1008.4
20260505010523 66 0 15.0 23.0 0.00 0.00 0.00 63 1008.5
20260505005522 66 0 10.0 17.0 0.00 0.00 0.00 61 1008.6
20260505004524 66 0 16.0 25.0 0.00 0.00 0.00 52 1008.5
20260505003526 66 0 17.0 23.0 0.00 0.00 0.00 53 1008.6
20260505002516 68 0 15.0 23.0 0.00 0.00 0.00 55 1008.7
20260505001538 69 0 15.0 26.0 0.00 0.00 0.00 50 1009.0
20260505000523 69 0 15.0 21.0 0.00 0.00 0.00 47 1009.0
20260504235542 70 0 14.0 22.0 0.00 0.00 0.00 44 1008.8
20260504234522 70 0 10.0 19.0 0.00 0.00 0.00 48 1008.8
20260504233543 69 0 13.0 22.0 0.00 0.01 0.00 54 1009.1
20260504232522 70 0 13.0 21.0 0.00 0.01 0.00 55 1009.2
20260504231518 71 0 10.0 16.0 0.00 0.01 0.00 49 1009.4
20260504230517 69 0 8.0 16.0 0.00 0.01 0.00 48 1009.2
20260504225521 69 0 11.0 19.0 0.00 0.01 0.00 50 1009.4
20260504224521 72 0 16.0 24.0 0.00 0.01 0.00 48 1009.8
20260504223523 72 0 12.0 19.0 0.00 0.01 0.00 47 1009.8
20260504222522 73 0 12.0 17.0 0.00 0.01 0.00 42 1010.2
20260504221526 73 0 11.0 20.0 0.00 0.01 0.00 41 1010.3
20260504220519 72 0 7.0 18.0 0.00 0.01 0.00 32 1009.8
20260504215522 73 0 12.0 22.0 0.00 0.01 0.00 42 1010.6
20260504214527 73 0 10.0 21.0 0.00 0.01 0.00 45 1010.6
20260504213544 73 0 9.0 16.0 0.00 0.01 0.00 44 1010.7
20260504212521 71 0 13.0 19.0 0.00 0.01 0.00 47 1010.5
20260504211604 72 0 12.0 19.0 0.00 0.01 0.00 44 1010.7
20260504210523 74 0 10.0 20.0 0.00 0.01 0.00 43 1010.9
20260504205519 72 0 11.0 19.0 0.00 0.01 0.00 44 1010.7